Regional Weather Roundup
Issued by NWS Sterling, VA

Home | Current Version | Previous Version | Text Only | Print | Product List | Glossary On
Versions: 1 2 3 4 5 6 7 8 9 10 11 12 13 14 15 16 17 18 19 20 21 22 23 24 25 26 27 28 29 30 31 32 33 34 35 36 37 38 39 40 41 42 43 44 45 46 47 48 49 50
000
ASUS41 KLWX 231310
RWRLWX

REGIONAL WEATHER ROUNDUP
NATIONAL WEATHER SERVICE BALTIMORE MD/WASHINGTON DC
800 AM EST MON JAN 23 2017

Note: "FAIR" indicates few or no clouds below 12,000 feet
with no significant weather and/or obstructions to visibility.
 TC=TEMPERATURE CELSIUS

 * =Non NWS site. Station does not report precipitation (e.g. rain,
    snow, etc.), thunder, or fog.

DCZ001-MDZ009-015-VAZ040>042-051-053>054-231400-
WASHINGTON METRO

CITY           SKY/WX    TMP DP  RH WIND       PRES   REMARKS
WASHINGTON NAT LGT RAIN  47  45  93 NE23G36   29.51R FOG
DULLES         LGT RAIN  45  42  89 E21G31    29.50R FOG
ANDREWS AFB    LGT RAIN  45  45 100 NE24G35   29.47F FOG
FT BELVOIR     LGT RAIN  47  44  91 VRB6G20   29.48F FOG
QUANTICO       LGT RAIN  47  46  97 NE22G37   29.46S FOG
COLLEGE PARK*  CLOUDY    43  41  93 NE10G22   29.54R
LEESBURG*      LGT RAIN  46  46 100 NE20G29   29.54R
MANASSAS*      RAIN     N/A N/A N/A MISG      29.48F VSB 1
GAITHERSBURG*  CLOUDY    43  39  87 E14G23    29.58R

$$

MDZ006>007-011-014-231400-
BALTIMORE METRO

CITY           SKY/WX    TMP DP  RH WIND       PRES   REMARKS
BWI AIRPORT    DRIZZLE   44  43  96 NE28G36   29.56R FOG
MD SCIENCE CTR   N/A     46  40  79 MISG      29.58R
MARTIN STATE   CLOUDY    45  45 100 NE18G29   29.60R FOG
ANNAPOLIS      CLOUDY    47  43  86 NE14G25   29.54R FOG
FORT MEADE*    CLOUDY    43  41  93 E17G26    29.57S

$$

MDZ012-015-019>023-231400-
MARYLAND EASTERN SHORE

CITY           SKY/WX    TMP DP  RH WIND       PRES   REMARKS
OCEAN CITY     RAIN      50  48  93 E25G35    29.48F FOG
SALISBURY      LGT RAIN  51  49  92 E26G41    29.46F FOG
BAY BRIDGE AP* DRIZZLE   45  43  93 E22G33    29.53S FOG
CAMBRIDGE*     CLOUDY    46  45  93 NE17G32   29.46F
EASTON*        LGT RAIN  46  45  93 E25G33    29.55S

$$

MDZ017>025-231400-
SOUTHERN MARYLAND

CITY           SKY/WX    TMP DP  RH WIND       PRES   REMARKS
PATUXENT RIVER LGT RAIN  48  47  96 E26G32    29.42F FOG
ST INIGOES     CLOUDY    49  48  97 NE20G26   29.41F FOG
LEONARDTOWN*   CLOUDY    46  45  93 E13G29    29.45S

$$

MDZ003>005-231400-
NORTH CENTRAL MARYLAND

CITY           SKY/WX    TMP DP  RH WIND       PRES   REMARKS
FREDERICK*     LGT RAIN  45  45 100 NE15G23   29.59R
HAGERSTOWN APT LGT RAIN  43  39  86 NE20G30   29.57R FOG
WESTMINSTER*   DRIZZLE   41  39  93 E18G31    29.57R

$$

MDZ501>502-231400-
WESTERN MARYLAND

CITY           SKY/WX    TMP DP  RH WIND       PRES   REMARKS
OAKLAND*         N/A     36  36 100 E17G32    29.44F FOG     WCI  25
CUMBERLAND*    CLOUDY    45  43  93 NE13G21   29.58F

$$

VAZ025>031-231400-
SHENANDOAH VALLEY

CITY           SKY/WX    TMP DP  RH WIND       PRES   REMARKS
WINCHESTER*    RAIN      43  41  93 NE9G18    29.50F
FRONT ROYAL*   CLOUDY    45  43  93 NE14      29.47F
LURAY*         RAIN      45  45 100 N13       29.44S
NEW MARKET*    CLOUDY    45  42  91 N15G24    29.43S
STAUNTON*      RAIN      46  43  90 NE9G16    29.42R
WAYNESBORO*    CLOUDY    46  44  93 N7        29.40R

$$

WVZ021-048>050-054>055-231400-
EASTERN WEST VIRGINIA PANHANDLE

CITY           SKY/WX    TMP DP  RH WIND       PRES   REMARKS
MARTINSBURG    LGT RAIN  43  42  97 NE15      29.54S VSB 1
PETERSBURG*    LGT RAIN  47  44  92 N8        29.49S

$$

VAZ036>039-050-231400-
CENTRAL FOOTHILLS

CITY           SKY/WX    TMP DP  RH WIND       PRES   REMARKS
CHARLOTTESVILL RAIN      49  46  90 NE22      29.39R FOG
CULPEPER*      RAIN      47  46  96 NE9G18    29.45R
ORANGE*        LGT RAIN  46  46 100 N14G20    29.43R
GORDONSVILLE*  FOG       47  47  99 NE17G23   29.38F VSB 1
WARRENTON*     LGT RAIN  47  44  87 NE17G29   29.43F

$$

VAZ055>057-231400-
NORTH AND CENTRAL PIEDMONT

CITY           SKY/WX    TMP DP  RH WIND       PRES   REMARKS
FREDERICKSBRG* DRIZZLE   48  48 100 NE20G29   29.41F
STAFFORD*      LGT RAIN  47  47 100 NE24G31   29.46S

$$

NCZ024-NYZ072-PAZ021-071-VAZ022-071-231400-
OTHER REGIONAL OBSERVATIONS

CITY           SKY/WX    TMP DP  RH WIND       PRES   REMARKS
NEW YORK CITY  CLOUDY    40  34  79 E15G32    29.87R
PHILADELPHIA   LGT RAIN  42  38  85 NE23G40   29.69F FOG
PITTSBURGH     LGT RAIN  47  44  90 E14       29.52R
ROANOKE        HVY RAIN  48  47  96 NE8       29.25F FOG
RICHMOND       CLOUDY    52  52 100 NE17G33   29.30R FOG
RALEIGH        CLOUDY    55  53  93 SW15      29.23R

$$

ANZ530>537-231400-
MARINE OBSERVATIONS

STATION/POSITION TIME  TEMP    WIND        PRES
                       AIR SEA DIR/SP/G
                 (UTC) (F)     (DEG/KT/KT) (MB)
THOMAS PT LIGHT  1200   47 40   70/ 29/ 33   N/A
BALT KEY BRIDGE  1248   44      50/ 19/ 22 1001.2R
COVE POINT       1248   47      90/ 23/ 38  997.4F
LEWISETTA        1248   48 44   90/ 21/ 28  994.6F
SOLOMONS ISLAND  1248   48 42   60/ 20/ 31   N/A
PINEY POINT      1236           80/ 18/ 22   N/A

$$




USA.gov is the U.S. government's official web portal to all federal, state and local government web resources and services.